| time (UTC) | temp F | wind direction | speed knots | gust knots | rain 1hr in | rain 24hr in | rain mn in | humidity % | barometer mb |
| 20260505181525 | 44 | 319 | 3.5 | 12.2 | 0.00 | 0.00 | 0.00 | 37 | 1017.9 |
| 20260505181024 | 44 | 350 | 5.2 | 10.4 | 0.00 | 0.00 | 0.00 | 36 | 1017.7 |
| 20260505180523 | 45 | 298 | 5.2 | 12.2 | 0.00 | 0.00 | 0.00 | 35 | 1017.9 |
| 20260505180022 | 44 | 334 | 6.1 | 13.0 | 0.00 | 0.00 | 0.00 | 37 | 1017.9 |
| 20260505175522 | 44 | 346 | 7.0 | 13.0 | 0.00 | 0.00 | 0.00 | 37 | 1017.9 |
| 20260505175022 | 43 | 348 | 3.5 | 9.6 | 0.00 | 0.00 | 0.00 | 38 | 1017.9 |
| 20260505174528 | 43 | 23 | 3.5 | 13.9 | 0.00 | 0.00 | 0.00 | 39 | 1018.1 |
| 20260505174021 | 42 | 311 | 5.2 | 13.9 | 0.00 | 0.00 | 0.00 | 37 | 1018.2 |
| 20260505173020 | 42 | 330 | 4.3 | 12.2 | 0.00 | 0.00 | 0.00 | 42 | 1018.2 |
| 20260505172519 | 42 | 307 | 6.1 | 11.3 | 0.00 | 0.00 | 0.00 | 41 | 1018.2 |
| 20260505172020 | 41 | 13 | 3.5 | 11.3 | 0.00 | 0.00 | 0.00 | 43 | 1018.2 |
| 20260505171519 | 41 | 349 | 3.5 | 12.2 | 0.00 | 0.00 | 0.00 | 43 | 1018.2 |
| 20260505171020 | 41 | 306 | 6.1 | 12.2 | 0.00 | 0.00 | 0.00 | 43 | 1018.3 |
| 20260505170519 | 42 | 319 | 4.3 | 11.3 | 0.00 | 0.00 | 0.00 | 42 | 1018.3 |
| 20260505170020 | 43 | 339 | 3.5 | 9.6 | 0.00 | 0.00 | 0.00 | 42 | 1018.2 |
| 20260505165518 | 44 | 22 | 6.1 | 9.6 | 0.00 | 0.00 | 0.00 | 41 | 1018.2 |
| 20260505165017 | 43 | 12 | 3.5 | 9.6 | 0.00 | 0.00 | 0.00 | 44 | 1018.2 |
| 20260505164515 | 42 | 360 | 4.3 | 8.7 | 0.00 | 0.00 | 0.00 | 48 | 1018.2 |
| 20260505164016 | 40 | 25 | 2.6 | 13.0 | 0.00 | 0.00 | 0.00 | 49 | 1018.2 |
| 20260505163026 | 41 | 360 | 5.2 | 9.6 | 0.00 | 0.00 | 0.00 | 48 | 1018.1 |
| 20260505162520 | 41 | 16 | 3.5 | 7.8 | 0.00 | 0.00 | 0.00 | 47 | 1018.1 |
| 20260505162019 | 40 | 12 | 2.6 | 12.2 | 0.00 | 0.00 | 0.00 | 50 | 1018.1 |
| 20260505161518 | 40 | 5 | 3.5 | 12.2 | 0.00 | 0.00 | 0.00 | 49 | 1018.1 |
| 20260505161018 | 40 | 355 | 3.5 | 7.8 | 0.00 | 0.00 | 0.00 | 48 | 1018.1 |
| 20260505160517 | 40 | 349 | 2.6 | 9.6 | 0.00 | 0.00 | 0.00 | 49 | 1018.2 |
| 20260505153012 | 39 | 355 | 2.6 | 10.4 | 0.00 | 0.00 | 0.00 | 52 | 1018.1 |
| 20260505152512 | 39 | 360 | 3.5 | 10.4 | 0.00 | 0.00 | 0.00 | 51 | 1018.0 |
| 20260505152015 | 39 | 9 | 4.3 | 10.4 | 0.00 | 0.00 | 0.00 | 51 | 1017.9 |
| 20260505151517 | 39 | 323 | 4.3 | 10.4 | 0.00 | 0.00 | 0.00 | 50 | 1017.9 |
| 20260505151011 | 39 | 332 | 1.7 | 8.7 | 0.00 | 0.00 | 0.00 | 51 | 1017.9 |
| 20260505150510 | 39 | 304 | 2.6 | 7.8 | 0.00 | 0.00 | 0.00 | 53 | 1017.8 |
| 20260505140502 | 38 | 340 | 1.7 | 5.2 | 0.00 | 0.00 | 0.00 | 56 | 1017.6 |
| 20260505124554 | 36 | 300 | 1.7 | 6.1 | 0.00 | 0.00 | 0.00 | 63 | 1016.9 |
| 20260505124051 | 36 | 284 | 2.6 | 5.2 | 0.00 | 0.00 | 0.00 | 63 | 1016.7 |
| 20260505123055 | 36 | 301 | 0.9 | 3.5 | 0.00 | 0.00 | 0.00 | 63 | 1016.7 |
| 20260505122556 | 36 | 293 | 0.9 | 4.3 | 0.00 | 0.00 | 0.00 | 63 | 1016.5 |
| 20260505122053 | 36 | 313 | 0.9 | 3.5 | 0.00 | 0.00 | 0.00 | 63 | 1016.6 |
| 20260505121612 | 36 | 318 | 0.9 | 4.3 | 0.00 | 0.00 | 0.00 | 63 | 1016.6 |
| 20260505121052 | 36 | 302 | 0.9 | 4.3 | 0.00 | 0.00 | 0.00 | 63 | 1016.6 |
| 20260505120552 | 36 | 301 | 1.7 | 5.2 | 0.00 | 0.00 | 0.00 | 62 | 1016.4 |
| 20260505120054 | 36 | 317 | 1.7 | 7.0 | 0.00 | 0.00 | 0.00 | 62 | 1016.4 |
| 20260505115555 | 36 | 304 | 0.9 | 7.0 | 0.00 | 0.00 | 0.00 | 62 | 1016.5 |
| 20260505115052 | 35 | 311 | 0.9 | 3.5 | 0.00 | 0.00 | 0.00 | 62 | 1016.4 |
| 20260505114550 | 35 | 309 | 0.9 | 3.5 | 0.00 | 0.00 | 0.00 | 62 | 1016.4 |
| 20260505114050 | 35 | 311 | 0.9 | 4.3 | 0.00 | 0.00 | 0.00 | 62 | 1016.3 |
| 20260505113047 | 35 | 317 | 1.7 | 4.3 | 0.00 | 0.00 | 0.00 | 62 | 1016.2 |
| 20260505112547 | 35 | 278 | 1.7 | 3.5 | 0.00 | 0.00 | 0.00 | 62 | 1016.2 |
| 20260505112046 | 35 | 301 | 1.7 | 3.5 | 0.00 | 0.00 | 0.00 | 62 | 1016.1 |
| 20260505111547 | 35 | 290 | 1.7 | 3.5 | 0.00 | 0.00 | 0.00 | 62 | 1015.8 |
| 20260505111046 | 35 | 288 | 0.9 | 3.5 | 0.00 | 0.00 | 0.00 | 62 | 1016.1 |
| 20260505110545 | 35 | 275 | 0.9 | 6.1 | 0.00 | 0.00 | 0.00 | 62 | 1016.1 |
| 20260505102039 | 35 | 284 | 1.7 | 2.6 | 0.00 | 0.00 | 0.00 | 60 | 1016.0 |
| 20260505101542 | 36 | 298 | 0.9 | 2.6 | 0.00 | 0.00 | 0.00 | 59 | 1015.8 |
| 20260505101037 | 36 | 302 | 0.9 | 3.5 | 0.00 | 0.00 | 0.00 | 58 | 1015.8 |
| 20260505100538 | 36 | 304 | 0.9 | 3.5 | 0.00 | 0.00 | 0.00 | 58 | 1015.7 |
| 20260505100036 | 36 | 302 | 1.7 | 3.5 | 0.00 | 0.00 | 0.00 | 58 | 1015.9 |
| 20260505095536 | 36 | 297 | 1.7 | 3.5 | 0.00 | 0.00 | 0.00 | 57 | 1015.9 |
| 20260505095036 | 36 | 312 | 1.7 | 4.3 | 0.00 | 0.00 | 0.00 | 57 | 1015.7 |
| 20260505094537 | 36 | 299 | 1.7 | 4.3 | 0.00 | 0.00 | 0.00 | 57 | 1015.7 |
| 20260505094033 | 36 | 308 | 2.6 | 7.0 | 0.00 | 0.00 | 0.00 | 56 | 1015.7 |
| 20260505093040 | 36 | 316 | 1.7 | 5.2 | 0.00 | 0.00 | 0.00 | 56 | 1015.7 |
| 20260505092533 | 36 | 298 | 1.7 | 5.2 | 0.00 | 0.00 | 0.00 | 56 | 1015.6 |
| 20260505092032 | 36 | 316 | 1.7 | 5.2 | 0.00 | 0.00 | 0.00 | 56 | 1015.6 |
| 20260505091532 | 36 | 307 | 1.7 | 3.5 | 0.00 | 0.00 | 0.00 | 56 | 1015.6 |
| 20260505091035 | 36 | 311 | 1.7 | 3.5 | 0.00 | 0.00 | 0.00 | 56 | 1015.7 |
| 20260505090530 | 36 | 308 | 1.7 | 6.1 | 0.00 | 0.00 | 0.00 | 56 | 1015.6 |
| 20260505090043 | 36 | 308 | 1.7 | 6.1 | 0.00 | 0.00 | 0.00 | 55 | 1015.8 |
| 20260505085531 | 36 | 313 | 2.6 | 7.0 | 0.00 | 0.00 | 0.00 | 55 | 1015.7 |
| 20260505085032 | 36 | 313 | 1.7 | 7.0 | 0.00 | 0.00 | 0.00 | 55 | 1015.8 |
| 20260505084530 | 36 | 314 | 2.6 | 6.1 | 0.00 | 0.00 | 0.00 | 55 | 1015.7 |
| 20260505084028 | 36 | 290 | 1.7 | 4.3 | 0.00 | 0.00 | 0.00 | 55 | 1015.6 |
| 20260505083037 | 37 | 302 | 1.7 | 5.2 | 0.00 | 0.00 | 0.00 | 55 | 1015.6 |
| 20260505082533 | 37 | 309 | 2.6 | 7.0 | 0.00 | 0.00 | 0.00 | 55 | 1015.6 |
| 20260505082033 | 37 | 295 | 2.6 | 7.0 | 0.00 | 0.00 | 0.00 | 55 | 1015.6 |
| 20260505081539 | 37 | 311 | 0.9 | 7.0 | 0.00 | 0.00 | 0.00 | 55 | 1015.6 |
| 20260505081034 | 37 | 307 | 1.7 | 7.0 | 0.00 | 0.00 | 0.00 | 55 | 1015.5 |
| 20260505080531 | 37 | 312 | 1.7 | 4.3 | 0.00 | 0.00 | 0.00 | 55 | 1015.5 |
| 20260505080031 | 37 | 293 | 1.7 | 4.3 | 0.00 | 0.00 | 0.00 | 55 | 1015.6 |
| 20260505075532 | 37 | 313 | 0.9 | 3.5 | 0.00 | 0.00 | 0.00 | 55 | 1015.5 |
| 20260505075030 | 37 | 310 | 1.7 | 3.5 | 0.00 | 0.00 | 0.00 | 54 | 1015.5 |
| 20260505074530 | 37 | 302 | 1.7 | 5.2 | 0.00 | 0.00 | 0.00 | 54 | 1015.6 |
| 20260505074029 | 37 | 299 | 0.9 | 5.2 | 0.00 | 0.00 | 0.00 | 54 | 1015.3 |
| 20260505073035 | 37 | 305 | 0.9 | 5.2 | 0.00 | 0.00 | 0.00 | 54 | 1015.4 |
| 20260505072524 | 37 | 304 | 0.9 | 5.2 | 0.00 | 0.00 | 0.00 | 54 | 1015.4 |
| 20260505072023 | 37 | 314 | 0.9 | 7.8 | 0.00 | 0.00 | 0.00 | 54 | 1015.5 |
| 20260505071524 | 37 | 329 | 2.6 | 7.8 | 0.00 | 0.00 | 0.00 | 54 | 1015.4 |
| 20260505071023 | 37 | 305 | 1.7 | 6.1 | 0.00 | 0.00 | 0.00 | 54 | 1015.5 |
| 20260505070525 | 37 | 313 | 1.7 | 5.2 | 0.00 | 0.00 | 0.00 | 54 | 1015.5 |
| 20260505070022 | 37 | 312 | 1.7 | 4.3 | 0.00 | 0.00 | 0.00 | 54 | 1015.4 |
| 20260505065520 | 37 | 303 | 0.9 | 5.2 | 0.00 | 0.00 | 0.00 | 54 | 1015.4 |
| 20260505065021 | 37 | 300 | 1.7 | 6.1 | 0.00 | 0.00 | 0.00 | 54 | 1015.6 |
| 20260505064524 | 37 | 309 | 1.7 | 5.2 | 0.00 | 0.00 | 0.00 | 54 | 1015.7 |
| 20260505064018 | 37 | 303 | 1.7 | 7.0 | 0.00 | 0.00 | 0.00 | 54 | 1015.6 |
| 20260505063620 | 37 | 298 | 1.7 | 5.2 | 0.00 | 0.00 | 0.00 | 55 | 1015.5 |
| 20260505063017 | 37 | 321 | 0.9 | 7.8 | 0.00 | 0.00 | 0.00 | 55 | 1015.5 |
| 20260505062523 | 37 | 303 | 0.9 | 7.8 | 0.00 | 0.00 | 0.00 | 55 | 1015.6 |
| 20260505062016 | 37 | 286 | 0.9 | 4.3 | 0.00 | 0.00 | 0.00 | 56 | 1015.4 |
| 20260505061515 | 37 | 319 | 0.0 | 2.6 | 0.00 | 0.00 | 0.00 | 56 | 1015.4 |
| 20260505061018 | 37 | 319 | 0.0 | 3.5 | 0.00 | 0.00 | 0.00 | 56 | 1015.4 |
| 20260505060514 | 37 | 321 | 1.7 | 3.5 | 0.00 | 0.00 | 0.00 | 56 | 1015.2 |
| 20260505060025 | 36 | 333 | 0.0 | 2.6 | 0.00 | 0.00 | 0.00 | 56 | 1015.2 |
| 20260505055513 | 36 | 342 | 0.0 | 2.6 | 0.00 | 0.00 | 0.00 | 56 | 1015.2 |
| 20260505055014 | 36 | 342 | 0.9 | 2.6 | 0.00 | 0.00 | 0.00 | 55 | 1015.2 |
| 20260505054525 | 37 | 341 | 0.9 | 2.6 | 0.00 | 0.00 | 0.00 | 55 | 1015.2 |
| 20260505054012 | 37 | 341 | 0.9 | 2.6 | 0.00 | 0.00 | 0.00 | 55 | 1015.2 |
| 20260505053012 | 37 | 341 | 0.9 | 2.6 | 0.00 | 0.00 | 0.00 | 55 | 1015.2 |
| 20260505052511 | 37 | 341 | 0.9 | 2.6 | 0.00 | 0.00 | 0.00 | 55 | 1015.1 |
| 20260505052013 | 37 | 346 | 0.9 | 3.5 | 0.00 | 0.00 | 0.00 | 54 | 1015.1 |
| 20260505051510 | 37 | 355 | 0.9 | 2.6 | 0.00 | 0.00 | 0.00 | 54 | 1015.2 |
| 20260505051010 | 37 | 355 | 0.0 | 1.7 | 0.00 | 0.00 | 0.00 | 54 | 1015.1 |
| 20260505050515 | 37 | 355 | 0.0 | 2.6 | 0.00 | 0.00 | 0.00 | 54 | 1015.0 |
| 20260505041506 | 39 | 16 | 3.5 | 7.8 | 0.00 | 0.00 | 0.00 | 51 | 1014.6 |
| 20260505041004 | 39 | 5 | 2.6 | 7.8 | 0.00 | 0.00 | 0.00 | 51 | 1014.5 |
| 20260505040503 | 38 | 11 | 3.5 | 7.0 | 0.00 | 0.00 | 0.00 | 52 | 1014.4 |
| 20260505040002 | 38 | 360 | 2.6 | 8.7 | 0.00 | 0.00 | 0.00 | 51 | 1014.4 |
| 20260505035505 | 39 | 10 | 3.5 | 7.8 | 0.00 | 0.00 | 0.00 | 51 | 1014.3 |
| 20260505035101 | 39 | 355 | 3.5 | 7.8 | 0.00 | 0.00 | 0.00 | 50 | 1014.2 |
| 20260505034559 | 39 | 17 | 2.6 | 7.0 | 0.00 | 0.00 | 0.00 | 50 | 1014.1 |
| 20260505034058 | 40 | 25 | 2.6 | 8.7 | 0.00 | 0.00 | 0.00 | 49 | 1014.1 |
| 20260505033658 | 40 | 5 | 3.5 | 8.7 | 0.00 | 0.00 | 0.00 | 49 | 1014.1 |
| 20260505033112 | 40 | 5 | 4.3 | 11.3 | 0.00 | 0.00 | 0.00 | 49 | 1014.0 |
| 20260505032554 | 40 | 5 | 3.5 | 11.3 | 0.00 | 0.00 | 0.00 | 49 | 1014.0 |
| 20260505032054 | 40 | 28 | 3.5 | 8.7 | 0.00 | 0.00 | 0.00 | 49 | 1013.9 |
| 20260505031553 | 40 | 23 | 3.5 | 8.7 | 0.00 | 0.00 | 0.00 | 49 | 1013.6 |
| 20260505031055 | 40 | 11 | 2.6 | 9.6 | 0.00 | 0.00 | 0.00 | 49 | 1013.6 |
| 20260505030553 | 41 | 28 | 2.6 | 9.6 | 0.00 | 0.00 | 0.00 | 48 | 1013.5 |
| 20260505030052 | 41 | 5 | 3.5 | 7.8 | 0.00 | 0.00 | 0.00 | 48 | 1013.5 |
| 20260505025549 | 41 | 5 | 3.5 | 7.8 | 0.00 | 0.00 | 0.00 | 48 | 1013.4 |
| 20260505025048 | 42 | 350 | 4.3 | 7.8 | 0.00 | 0.00 | 0.00 | 48 | 1013.3 |
| 20260505024547 | 42 | 355 | 3.5 | 7.8 | 0.00 | 0.00 | 0.00 | 47 | 1013.3 |
| 20260505024046 | 42 | 360 | 3.5 | 7.8 | 0.00 | 0.00 | 0.00 | 47 | 1013.1 |
| 20260505023647 | 42 | 360 | 3.5 | 7.0 | 0.00 | 0.00 | 0.00 | 47 | 1013.1 |
| 20260505023059 | 42 | 355 | 3.5 | 8.7 | 0.00 | 0.00 | 0.00 | 47 | 1013.0 |
| 20260505022551 | 43 | 25 | 4.3 | 8.7 | 0.00 | 0.00 | 0.00 | 46 | 1012.9 |
| 20260505022050 | 43 | 360 | 4.3 | 7.8 | 0.00 | 0.00 | 0.00 | 46 | 1012.9 |
| 20260505021546 | 43 | 12 | 3.5 | 7.0 | 0.00 | 0.00 | 0.00 | 46 | 1012.6 |
| 20260505021046 | 43 | 5 | 3.5 | 7.0 | 0.00 | 0.00 | 0.00 | 46 | 1012.7 |
| 20260505020545 | 43 | 5 | 2.6 | 10.4 | 0.00 | 0.00 | 0.00 | 46 | 1012.6 |
| 20260505020050 | 44 | 360 | 4.3 | 10.4 | 0.00 | 0.00 | 0.00 | 45 | 1012.6 |
| 20260505015545 | 44 | 360 | 5.2 | 8.7 | 0.00 | 0.00 | 0.00 | 45 | 1012.4 |
| 20260505015045 | 44 | 355 | 5.2 | 8.7 | 0.00 | 0.00 | 0.00 | 45 | 1012.3 |
| 20260505014545 | 44 | 5 | 3.5 | 9.6 | 0.00 | 0.00 | 0.00 | 45 | 1012.2 |
| 20260505014044 | 44 | 5 | 4.3 | 9.6 | 0.00 | 0.00 | 0.00 | 44 | 1012.2 |
| 20260505013643 | 44 | 350 | 4.3 | 9.6 | 0.00 | 0.00 | 0.00 | 44 | 1012.1 |
| 20260505013039 | 45 | 360 | 4.3 | 9.6 | 0.00 | 0.00 | 0.00 | 43 | 1012.0 |
| 20260505012539 | 45 | 355 | 3.5 | 7.0 | 0.00 | 0.00 | 0.00 | 44 | 1011.9 |
| 20260505012039 | 45 | 304 | 3.5 | 7.8 | 0.00 | 0.00 | 0.00 | 43 | 1011.8 |
| 20260505011539 | 45 | 24 | 3.5 | 12.2 | 0.00 | 0.00 | 0.00 | 43 | 1011.7 |
| 20260505011037 | 45 | 182 | 5.2 | 12.2 | 0.00 | 0.00 | 0.00 | 42 | 1011.5 |
| 20260505010536 | 46 | 5 | 4.3 | 9.6 | 0.00 | 0.00 | 0.00 | 42 | 1011.7 |
| 20260505010041 | 46 | 331 | 1.7 | 8.7 | 0.00 | 0.00 | 0.00 | 41 | 1011.6 |
| 20260505005536 | 46 | 5 | 2.6 | 8.7 | 0.00 | 0.00 | 0.00 | 41 | 1011.7 |
| 20260505005036 | 46 | 29 | 2.6 | 8.7 | 0.00 | 0.00 | 0.00 | 42 | 1011.4 |
| 20260505004544 | 47 | 274 | 3.5 | 12.2 | 0.00 | 0.00 | 0.00 | 41 | 1011.5 |
| 20260505004033 | 47 | 319 | 2.6 | 13.0 | 0.00 | 0.00 | 0.00 | 41 | 1011.4 |
| 20260505003534 | 48 | 315 | 3.5 | 10.4 | 0.00 | 0.00 | 0.00 | 39 | 1011.3 |
| 20260505003039 | 48 | 277 | 3.5 | 10.4 | 0.00 | 0.00 | 0.00 | 39 | 1011.3 |
| 20260505002537 | 49 | 11 | 5.2 | 13.0 | 0.00 | 0.00 | 0.00 | 39 | 1011.2 |
| 20260505002036 | 49 | 15 | 7.8 | 13.0 | 0.00 | 0.00 | 0.00 | 37 | 1011.1 |
| 20260505001536 | 50 | 22 | 6.1 | 11.3 | 0.00 | 0.00 | 0.00 | 38 | 1011.0 |
| 20260505001035 | 50 | 336 | 4.3 | 14.8 | 0.00 | 0.00 | 0.00 | 39 | 1010.9 |
| 20260505000539 | 49 | 26 | 7.8 | 14.8 | 0.00 | 0.00 | 0.00 | 40 | 1010.9 |
| 20260505000037 | 49 | 5 | 6.1 | 13.9 | 0.00 | 0.00 | 0.00 | 39 | 1011.0 |
| 20260504235535 | 49 | 360 | 4.3 | 13.0 | 0.00 | 0.00 | 0.00 | 42 | 1011.0 |
| 20260504235034 | 48 | 360 | 4.3 | 13.0 | 0.00 | 0.00 | 0.00 | 41 | 1010.9 |
| 20260504234550 | 48 | 355 | 2.6 | 13.0 | 0.00 | 0.00 | 0.00 | 41 | 1010.7 |
| 20260504234034 | 49 | 325 | 2.6 | 9.6 | 0.00 | 0.00 | 0.00 | 40 | 1010.8 |
| 20260504233635 | 51 | 360 | 3.5 | 12.2 | 0.00 | 0.00 | 0.00 | 39 | 1010.7 |
| 20260504233031 | 51 | 349 | 2.6 | 12.2 | 0.00 | 0.00 | 0.00 | 39 | 1010.9 |
| 20260504232529 | 51 | 11 | 5.2 | 13.0 | 0.00 | 0.00 | 0.00 | 39 | 1010.5 |
| 20260504232029 | 51 | 355 | 4.3 | 13.0 | 0.00 | 0.00 | 0.00 | 40 | 1010.5 |
| 20260504231539 | 50 | 299 | 5.2 | 16.5 | 0.00 | 0.00 | 0.00 | 40 | 1010.6 |
| 20260504231030 | 51 | 321 | 8.7 | 16.5 | 0.00 | 0.00 | 0.00 | 39 | 1010.6 |
| 20260504230528 | 52 | 293 | 5.2 | 12.2 | 0.00 | 0.00 | 0.00 | 39 | 1010.5 |
| 20260504230028 | 52 | 309 | 6.1 | 12.2 | 0.00 | 0.00 | 0.00 | 37 | 1010.4 |
| 20260504225528 | 53 | 5 | 5.2 | 10.4 | 0.00 | 0.00 | 0.00 | 39 | 1010.5 |
| 20260504225031 | 52 | 22 | 4.3 | 11.3 | 0.00 | 0.00 | 0.00 | 40 | 1010.4 |
| 20260504224529 | 53 | 304 | 5.2 | 12.2 | 0.00 | 0.00 | 0.00 | 38 | 1010.3 |
| 20260504224026 | 54 | 9 | 7.0 | 12.2 | 0.00 | 0.00 | 0.00 | 37 | 1010.2 |
| 20260504223626 | 53 | 35 | 6.1 | 13.0 | 0.00 | 0.00 | 0.00 | 38 | 1010.3 |
| 20260504223031 | 53 | 33 | 5.2 | 13.0 | 0.00 | 0.00 | 0.00 | 39 | 1010.3 |
| 20260504222530 | 52 | 349 | 5.2 | 11.3 | 0.00 | 0.00 | 0.00 | 40 | 1010.2 |
| 20260504222029 | 51 | 21 | 4.3 | 15.6 | 0.00 | 0.00 | 0.00 | 38 | 1010.2 |
| 20260504221529 | 52 | 11 | 6.1 | 15.6 | 0.00 | 0.00 | 0.00 | 38 | 1010.2 |
| 20260504221031 | 52 | 313 | 4.3 | 17.4 | 0.00 | 0.00 | 0.00 | 39 | 1010.2 |
| 20260504220529 | 52 | 296 | 8.7 | 17.4 | 0.00 | 0.00 | 0.00 | 37 | 1010.1 |
| 20260504220029 | 53 | 302 | 7.0 | 16.5 | 0.00 | 0.00 | 0.00 | 38 | 1010.1 |
| 20260504215529 | 52 | 293 | 6.1 | 16.5 | 0.00 | 0.00 | 0.00 | 38 | 1009.9 |
| 20260504215028 | 52 | 316 | 7.8 | 16.5 | 0.00 | 0.00 | 0.00 | 39 | 1010.1 |
| 20260504214535 | 52 | 330 | 7.8 | 13.9 | 0.00 | 0.00 | 0.00 | 38 | 1010.0 |
| 20260504214029 | 52 | 324 | 7.0 | 14.8 | 0.00 | 0.00 | 0.00 | 38 | 1010.1 |
| 20260504213629 | 53 | 312 | 7.8 | 18.2 | 0.00 | 0.00 | 0.00 | 38 | 1010.0 |
| 20260504213029 | 53 | 319 | 7.8 | 18.2 | 0.00 | 0.00 | 0.00 | 38 | 1010.1 |
| 20260504212528 | 52 | 20 | 6.1 | 20.0 | 0.00 | 0.00 | 0.00 | 38 | 1010.2 |
| 20260504212025 | 52 | 318 | 7.8 | 19.1 | 0.00 | 0.00 | 0.00 | 39 | 1010.1 |
| 20260504211525 | 52 | 298 | 7.0 | 16.5 | 0.00 | 0.00 | 0.00 | 38 | 1010.0 |
| 20260504211025 | 53 | 336 | 8.7 | 15.6 | 0.00 | 0.00 | 0.00 | 38 | 1010.1 |
| 20260504210525 | 52 | 40 | 4.3 | 14.8 | 0.00 | 0.00 | 0.00 | 39 | 1010.1 |
| 20260504210025 | 53 | 271 | 7.8 | 18.2 | 0.00 | 0.00 | 0.00 | 37 | 1010.1 |
| 20260504205529 | 53 | 345 | 9.6 | 18.2 | 0.00 | 0.00 | 0.00 | 38 | 1010.2 |
| 20260504205024 | 53 | 9 | 5.2 | 22.6 | 0.00 | 0.00 | 0.00 | 39 | 1010.0 |
| 20260504204551 | 52 | 305 | 9.6 | 22.6 | 0.00 | 0.00 | 0.00 | 39 | 1010.1 |
| 20260504204025 | 52 | 321 | 7.8 | 17.4 | 0.00 | 0.00 | 0.00 | 39 | 1010.1 |
| 20260504203624 | 53 | 323 | 7.8 | 21.7 | 0.00 | 0.00 | 0.00 | 39 | 1010.0 |
| 20260504203028 | 53 | 284 | 8.7 | 21.7 | 0.00 | 0.00 | 0.00 | 39 | 1010.0 |
| 20260504202523 | 53 | 326 | 9.6 | 17.4 | 0.00 | 0.00 | 0.00 | 39 | 1010.1 |
| 20260504202022 | 52 | 332 | 8.7 | 14.8 | 0.00 | 0.00 | 0.00 | 39 | 1010.0 |
| 20260504201522 | 53 | 334 | 7.8 | 13.9 | 0.00 | 0.00 | 0.00 | 37 | 1010.0 |
| 20260504201020 | 53 | 308 | 4.3 | 13.9 | 0.00 | 0.00 | 0.00 | 39 | 1010.0 |
| 20260504200521 | 52 | 304 | 6.1 | 16.5 | 0.00 | 0.00 | 0.00 | 40 | 1010.0 |
| 20260504200028 | 53 | 292 | 7.8 | 16.5 | 0.00 | 0.00 | 0.00 | 38 | 1010.1 |
| 20260504195519 | 52 | 302 | 7.0 | 16.5 | 0.00 | 0.00 | 0.00 | 41 | 1010.0 |
| 20260504195020 | 53 | 347 | 6.1 | 13.0 | 0.00 | 0.00 | 0.00 | 41 | 1010.1 |
| 20260504194521 | 52 | 319 | 5.2 | 17.4 | 0.00 | 0.00 | 0.00 | 42 | 1010.0 |
| 20260504194023 | 51 | 317 | 8.7 | 17.4 | 0.00 | 0.00 | 0.00 | 40 | 1010.1 |
| 20260504193620 | 52 | 341 | 7.0 | 14.8 | 0.00 | 0.00 | 0.00 | 41 | 1010.0 |
| 20260504193025 | 52 | 287 | 6.1 | 14.8 | 0.00 | 0.00 | 0.00 | 41 | 1010.0 |
| 20260504192526 | 51 | 319 | 7.0 | 14.8 | 0.00 | 0.00 | 0.00 | 42 | 1010.0 |
| 20260504192024 | 51 | 333 | 4.3 | 17.4 | 0.00 | 0.00 | 0.00 | 42 | 1010.0 |
| 20260504191523 | 52 | 332 | 6.1 | 17.4 | 0.00 | 0.00 | 0.00 | 41 | 1010.0 |
| 20260504191024 | 53 | 321 | 7.0 | 14.8 | 0.00 | 0.00 | 0.00 | 40 | 1009.9 |
| 20260504190523 | 52 | 328 | 6.1 | 14.8 | 0.00 | 0.00 | 0.00 | 42 | 1010.0 |
| 20260504190023 | 52 | 232 | 5.2 | 15.6 | 0.00 | 0.00 | 0.00 | 41 | 1010.0 |
| 20260504185522 | 51 | 316 | 7.8 | 15.6 | 0.00 | 0.00 | 0.00 | 44 | 1010.0 |
| 20260504185022 | 50 | 269 | 5.2 | 13.0 | 0.00 | 0.00 | 0.00 | 45 | 1010.1 |
| 20260504184522 | 50 | 18 | 4.3 | 14.8 | 0.00 | 0.00 | 0.00 | 44 | 1009.9 |
| 20260504184024 | 49 | 360 | 5.2 | 17.4 | 0.00 | 0.00 | 0.00 | 46 | 1009.9 |
| 20260504183623 | 49 | 346 | 5.2 | 13.9 | 0.00 | 0.00 | 0.00 | 44 | 1010.1 |
| 20260504183017 | 49 | 14 | 7.0 | 13.9 | 0.00 | 0.00 | 0.00 | 43 | 1009.9 |
| 20260504182519 | 49 | 322 | 5.2 | 17.4 | 0.00 | 0.00 | 0.00 | 44 | 1009.8 |
| 20260504182016 | 49 | 308 | 8.7 | 17.4 | 0.00 | 0.00 | 0.00 | 43 | 1009.9 |